Hourly Data Report for September 17, 2017

All times are specified in Local Standard Time (LST). Add 1 hour to adjust for Daylight Saving Time where and when it is observed.

CHARLOTTETOWN A
PRINCE EDWARD ISLAND

46°17'21.000" N
63°07'09.000" W
48.50 m
8300301
71706
YYG

Download Data

Hourly Data (September 2017)
Hourly Data Report for September 17, 2017
Temp Definition
°C
Dew Point Temp Definition
°C
Rel Hum Definition
%
Wind Dir Definition
10's deg

Wind Spd Definition
km/h
Visibility Definition
km
Stn Press Definition
kPa
Hmdx Definition


Wind Chill Definition


Weather Definition


TIME
00:00 Legend Double Dagger 13.9 11.9 88 3 8 24.1 101.67     LegendNANA
01:00 Legend Double Dagger 13.5 11.2 86 8 8 24.1 101.65     LegendNANA
02:00 Legend Double Dagger 13.3 11.6 89 5 5 24.1 101.66     Mostly Cloudy
03:00 Legend Double Dagger 13.3 11.5 89 4 8 24.1 101.61     LegendNANA
04:00 Legend Double Dagger 13.2 11.2 88 6 7 24.1 101.62     LegendNANA
05:00 Legend Double Dagger 12.7 10.9 88 4 7 24.1 101.67     Cloudy
06:00 Legend Double Dagger 12.8 10.9 88 8 5 24.1 101.67     LegendNANA
07:00 Legend Double Dagger 13.3 11.5 89 6 5 24.1 101.73     LegendNANA
08:00 Legend Double Dagger 14.3 11.4 83 9 5 24.1 101.74     Cloudy
09:00 Legend Double Dagger 15.0 11.4 79 14 13 24.1 101.75     LegendNANA
10:00 Legend Double Dagger 15.0 11.3 78 10 7 24.1 101.80     LegendNANA
11:00 Legend Double Dagger 15.4 11.5 78 7 10 24.1 101.76     Cloudy
12:00 Legend Double Dagger 15.6 11.6 77 7 10 24.1 101.72     LegendNANA
13:00 Legend Double Dagger 16.6 12.3 76 10 9 24.1 101.65     LegendNANA
14:00 Legend Double Dagger 16.4 12.3 77 4 3 24.1 101.66     Cloudy
15:00 Legend Double Dagger 16.7 12.7 77 10 5 24.1 101.63     LegendNANA
16:00 Legend Double Dagger 16.8 13.2 79 11 7 24.1 101.63     LegendNANA
17:00 Legend Double Dagger 16.4 12.8 79 14 10 24.1 101.63     Cloudy
18:00 Legend Double Dagger 15.6 12.3 81 10 10 24.1 101.64     LegendNANA
19:00 Legend Double Dagger 15.2 12.1 82 9 10 24.1 101.67     LegendNANA
20:00 Legend Double Dagger 14.8 12.5 86 7 9 19.3 101.72     Cloudy
21:00 Legend Double Dagger 14.7 12.3 86 8 11 24.1 101.73     LegendNANA
22:00 Legend Double Dagger 14.4 11.8 84 9 9 24.1 101.72     LegendNANA
23:00 Legend Double Dagger 14.4 11.6 83 8 9 24.1 101.74     Cloudy

Notes on Data Quality.

Legend

  • E = Estimated
  • M = Missing
  • NA = Not Available
  • ‡ = Partner data that is not subject to review by the National Climate Archives
Date modified: